Regional Weather Roundup
Issued by NWS

Home | Current Version | Previous Version | Graphics & Text | Print | Product List | Glossary Off
Versions: 1 2 3 4 5 6 7 8 9 10 11 12 13 14 15 16 17 18 19 20 21 22 23 24 25 26 27 28 29 30 31 32 33 34 35 36 37 38 39 40 41 42 43 44 45 46 47 48 49 50

000
ASUS43 KMKX 250859
RWRWI

WISCONSIN REGIONAL WEATHER ROUNDUP
NATIONAL WEATHER SERVICE MILWAUKEE/SULLIVAN WI
400 AM CDT FRI JUL 25 2014

NOTE: "FAIR" INDICATES FEW OR NO CLOUDS BELOW 12,000 FEET WITH NO
SIGNIFICANT WEATHER AND/OR OBSTRUCTIONS TO VISIBILITY.

WIZ001-002-006>008-014>016-023>028-251000-
NORTHWEST WISCONSIN

CITY           SKY/WX    TMP DP  RH WIND       PRES   REMARKS
SUPERIOR ARPT  CLOUDY    58  55  90 CALM      29.89R
ASHLAND        MOCLDY    59  57  93 W3        29.91R
HAYWARD        MOCLDY    65  60  84 S5        29.91R
SIREN          CLOUDY    66  60  80 S3        29.90R
RICE LAKE      CLOUDY    64  58  82 S8        29.92S
LADYSMITH      CLOUDY    63  58  86 S5        29.96R
EAU CLAIRE     NOT AVBL
MENOMONIE      CLOUDY    67  60  78 S8        29.92S
NEW RICHMOND   CLOUDY    66  58  75 S12       29.91R
OSCEOLA        CLOUDY    67  60  78 S8        29.92R
$$

WIZ003>005-009-010-017-018-251000-
NORTH CENTRAL WISCONSIN

CITY           SKY/WX    TMP DP  RH WIND       PRES   REMARKS
WOODRUFF       MOCLDY    62  56  80 CALM      29.93F
RHINELANDER    PTCLDY    58  54  86 SW5       29.95F
EAGLE RIVER    MOCLDY    59  52  78 CALM      29.94F
LAND O LAKES   CLOUDY    55  54  97 CALM      29.95F
PHILLIPS       MOCLDY    62  57  84 S5        29.93R
TOMAHAWK       PTCLDY    56  54  92 CALM      29.95F
MEDFORD        PTCLDY    59  57  93 S6        29.95R
MERRILL        PTCLDY    58  56  92 CALM      29.95F
$$

WIZ029-030-035-036-043>047-251000-
CENTRAL WISCONSIN

CITY           SKY/WX    TMP DP  RH WIND       PRES   REMARKS
WAUSAU         PTCLDY    63  58  83 S7        29.95S
MOSINEE        CLEAR     59  59 100 S7        29.97S
MARSHFIELD     MOCLDY    62  58  86 SW7       29.96R
STEVENS POINT  CLEAR     59  55  87 S7        29.97S
WAUPACA        PTCLDY    60  55  82 S3        29.97F
WAUTOMA        NOT AVBL
WISC RAPIDS    PTCLDY    62  57  83 S8        29.98R
CAMP DOUGLAS   NOT AVBL
$$

WIZ011>013-019>022-031-037>040-048>050-251000-
NORTHEAST WISCONSIN

CITY           SKY/WX    TMP DP  RH WIND       PRES   REMARKS
ANTIGO         CLOUDY    57  55  94 SE6       29.96F
STURGEON BAY   MOCLDY    61  45  55 SW10      29.98S
GREEN BAY      CLOUDY    60  50  69 S7        29.96F
MANITOWOC      NOT AVBL
APPLETON       CLOUDY    61  46  59 S7        29.98F
CLINTONVILLE   CLOUDY    59  50  72 S3        29.96F
OSHKOSH        MOCLDY    61  49  64 S10       29.97F
$$

WIZ032>034-041-042-053>061-251000-
SOUTHWEST WISCONSIN

CITY           SKY/WX    TMP DP  RH WIND       PRES   REMARKS
LA CROSSE      CLOUDY    69  59  70 S9        29.95R
SPARTA         PTCLDY    64  58  81 S6        29.96F
VIROQUA        PTSUNNY   62  59  90 S8        29.98S
BOSCOBEL       MOCLDY    61  58  90 S3        29.99R
PRAIRIE DU CHI MOCLDY    65  56  71 CALM      29.98R
PLATTEVILLE    FAIR      61  56  85 SE7       30.01S
$$

WIZ056-057-062-063-064-067-068-251000-
SOUTH CENTRAL WISCONSIN

CITY           SKY/WX    TMP DP  RH WIND       PRES   REMARKS
BARABOO/DELLS  CLEAR     61  54  78 S7        29.99F
LONE ROCK      NOT AVBL
WATERTOWN      PTCLDY    56  48  75 S6        30.02S
MADISON        CLEAR     64  51  62 S12       30.02R
MIDDLETON      FAIR      63  54  72 S5        30.01F
MONROE         PTCLDY    59  52  77 S10       30.03S
JANESVILLE     CLEAR     55  46  71 CALM      30.03F
$$

WIZ051-052-058>065-066-070>072-251000-
SOUTHEAST WISCONSIN

CITY           SKY/WX    TMP DP  RH WIND       PRES   REMARKS
MILWAUKEE      PTCLDY    60  45  57 SW10      30.03F
WAUKESHA       PTCLDY    55  45  67 S5        30.04F
MILWAUKEE/TIMM PTCLDY    57  43  58 CALM      30.03F
RACINE         PTCLDY    58  48  69 SW7       30.05F
BURLINGTON     PTCLDY    50  47  90 CALM      30.04S
KENOSHA        PTCLDY    56  49  77 SW6       30.04F
FOND DU LAC    MOCLDY    61  47  59 S8        29.99F
SHEBOYGAN      PTCLDY    58  46  64 SW7       29.99F
WEST BEND      MOCLDY    55  43  62 CALM      30.02F
JUNEAU         PTCLDY    56  45  64 S8        30.02F
$$

LSZ147-162-251000-
LAKE SUPERIOR

STATION/POSITION TIME  TEMP    WIND        PRES    WAVE
                       AIR SEA DIR/SP/G            HT/PER
                 (UTC) (F)     (DEG/KT/KT) (MB)    (FT/S)
$$

LMZ867-665-643>646-251000-
LAKE MICHIGAN

STATION/POSITION TIME  TEMP    WIND        PRES    WAVE
                       AIR SEA DIR/SP/G            HT/PER
                 (UTC) (F)     (DEG/KT/KT) (MB)    (FT/S)
$$

TC  - TEMPERATURE IN CELSIUS
VSB - VISIBILITY IN STATUTE MILES
WCI - WIND CHILL INDEX
HX  - HEAT INDEX




USA.gov is the U.S. government's official web portal to all federal, state and local government web resources and services.